星链-35902(STARLINK-35902)

导读

STARLINK-35902是美国SpaceX星链星座的卫星,于2025年11月23日发射升空。作为星链低轨互联网星座建设的组成部分,它承担着为全球提供高速低延迟宽带互联网服务的任务,尤其服务偏远地区、移动载具的网络接入需求,是美国低轨卫星互联网组网进程中的一环。

基本信息
目录编号:
66626
目录名称:
STARLINK-35902
国际标识:
2025-271K
轨道中心:
EARTH
卫星名称:
星链-35902
卫星全名:
星链-35902(STARLINK-35902)
卫星状态:
在轨 (已飞行285 天)
发射日期:
2025-11-23 UTC
国别 :
美国 (US)
星等 :
--
轨道信息
数据来源 国际轨道数据
星历时间: 2026-09-04T03:30:51+0800
8小时前
查看轨道信息
半长轴: 6840.856km
偏心率: 0.000133
轨道倾角: 53.161°
近地点辐角 92.508°
升交点赤经 31.478°
平近点角 267.608°
近地点: 461.809km
远地点: 463.629km
周期: 93.848分钟
每日圈数: 15.343948
详细信息
固有亮度:
5
最大亮度:
2.5
卫星平台:
Starlink V1.0
覆盖范围:
全球
运营商:
太空探索技术公司
运营商所在国:
美国
制造商(研发单位):
太空探索技术公司
制造商所在国:
美国
使用方式:
暂无
卫星简介
Starlink 计划是 SpaceX 推出的全球卫星互联网项目,通过发射低轨道卫星,为全球尤其是偏远地区提供高速、低延迟的互联网服务。自 2019 年起,Starlink 已部署数千颗卫星,旨在缩小全球数字鸿沟,推动互联网普及。该项目还为军事、航空等行业提供通信支持,带来广泛经济效益。
2D轨道图
3D轨道图
轨道高度分析图
轨道倾角分析图
轨道综合分析图
查看轨道综合分析图
交会数据列表
事件ID 空间交会对象 最接近时刻(TCA) 交会距离 交会风险概率(CRP) 交会风险指数(CRI) 操作
CDM_260902-211705-926706-662624
2026-09-02T
21:17:21+0000
0.191 km
中距离
5.632096E-4 高风险 0.9
CDM_260902-075005-853106-662621
2026-09-02T
07:50:02+0000
0.250 km
中距离
4.959487E-4 高风险 0.89
CDM_260905-025206-662606-945821
2026-09-05T
02:52:47+0000
0.453 km
远距离
2.229521E-4 高风险 0.82
CDM_260904-234406-662606-833421
2026-09-04T
23:44:22+0000
0.494 km
远距离
1.853478E-4 高风险 0.8
CDM_260904-125806-662606-952521
2026-09-04T
12:58:04+0000
0.572 km
远距离
1.022908E-4 高风险 0.75
CDM_260904-123105-017706-662622
2026-09-04T
12:31:14+0000
0.650 km
远距离
8.602699E-5 中风险 0.74
CDM_260903-200506-546906-662621
2026-09-03T
20:05:15+0000
0.793 km
远距离
4.578553E-5 中风险 0.68
CDM_260904-092104-942606-662621
2026-09-04T
09:21:18+0000
0.810 km
远距离
4.134905E-5 中风险 0.67
CDM_260904-202606-662606-918221
2026-09-04T
20:26:47+0000
0.891 km
远距离
3.478721E-5 中风险 0.66
CDM_260903-142306-426706-662621
2026-09-03T
14:23:25+0000
0.667 km
远距离
3.397539E-5 中风险 0.66